• Join FlightAware (Why Join?)
  • Login
  • US Flag 
01:22AM EST


 

Airport Tracker/Info


-or-


 

Live Flight TrackerFlight Track Log ✈ AWE1454 ✈ 28-Apr-2013 ✈ KPHL - KMHT

Flight Track Log - Related Links

Times and Time Zones

All times are in EDT time to prevent confusion due to time zone crossing. See the AWE1454 flight status page for this flight to view local times or setup timezone preferences in your user account.

Time Position Orientation Groundspeed Altitude Reporting Facility
EDT Latitude Longitude Course Direction KTS MPH feet Rate Location/Type
04:57PM 39.8833 -75.2167 53° Northeast 149 171 1,000  Level Philadelphia TRACON
04:57PM 39.8667 -75.1667 113° Southeast 184 212 1,800 1,864 Climbing Philadelphia TRACON
04:58PM 39.8667 -75.1000 90° East 240 276 4,200 2,808 Climbing Philadelphia TRACON
04:59PM 40.0464 -74.4536 37° Northeast  Level FlightAware Approximate
05:00PM 40.2433 -74.2567 37° Northeast  Level FlightAware Approximate
05:01PM 40.4368 -74.0483 21° North  Level FlightAware Approximate
05:01PM 39.8211 -74.8736 105° East 288 331 11,300  Level New York Center
05:02PM 40.5968 -73.8016 53° Northeast  Level FlightAware Approximate
05:02PM 39.8047 -74.7483 100° East 310 357 12,600  Level New York Center
05:03PM 39.8667 -74.6439 52° Northeast 315 362 16,000 2,800 Climbing New York Center
05:04PM 39.9506 -74.5617 37° Northeast 335 386 18,200 2,361 Climbing New York Center
05:05PM 40.0344 -74.4797 37° Northeast 361 415 20,800 2,288 Climbing New York Center
05:06PM 40.1228 -74.3892 38° Northeast 380 437 22,700 2,051 Climbing New York Center
05:07PM 40.2147 -74.3072 34° Northeast 393 452 24,800 1,934 Climbing New York Center
05:08PM 40.3261 -74.2775 11° North 393 452 26,600 1,672 Climbing New York Center
05:09PM 40.4372 -74.2586 North 393 452 28,200 1,785 Climbing New York Center
05:10PM 40.5503 -74.2397 North 399 459 30,200 1,333 Climbing New York Center
05:12PM 40.8050 -74.1950 North 414 476 32,600 844 Climbing Boston Center
05:13PM 40.9219 -74.1706 North 414 476 33,000 198 Climbing Boston Center
05:14PM 41.0475 -74.1464 North 428 493 33,000  Level Boston Center
05:15PM 41.1708 -74.1222 North 433 498 33,000  Level Boston Center
05:16PM 41.2878 -74.0947 10° North 433 498 33,000  Level Boston Center
05:17PM 41.4111 -74.0731 North 428 493 33,000  Level Boston Center
05:18PM 41.5344 -74.0486 North 433 498 33,000  Level Boston Center
05:19PM 41.6556 -74.0239 North 438 504 33,000 -101 Level Boston Center
05:20PM 41.7747 -73.9989 North 438 504 32,800 -2,000 Descending Boston Center
05:21PM 41.8844 -73.9042 33° Northeast 419 482 29,000 -2,900 Descending Boston Center
05:22PM 41.9656 -73.7636 52° Northeast 437 503 27,000 -1,000 Descending Boston Center
05:23PM 42.0483 -73.6172 53° Northeast 461 531 27,000 -50 Level Boston Center
05:24PM 42.1247 -73.4814 53° Northeast 491 565 26,900 -750 Descending Boston Center
05:25PM 42.2072 -73.3397 52° Northeast 462 532 25,500 -1,765 Descending Boston Center
05:26PM 42.2811 -73.2089 53° Northeast 442 509 23,400 -1,934 Descending Boston Center
05:27PM 42.3506 -73.0806 54° Northeast 446 513 21,600 -1,650 Descending Boston Center
05:28PM 42.4053 -72.9856 52° Northeast 446 513 20,100 -1,300 Descending Boston Center
05:29PM 42.4872 -72.8400 53° Northeast 408 470 19,000 -744 Descending Boston Center
05:30PM 42.5439 -72.6936 62° Northeast 397 457 18,600 -1,261 Descending Boston Center
05:31PM 42.5900 -72.5756 62° Northeast 384 442 16,500 -2,350 Descending Boston Center
05:32PM 42.6358 -72.4458 64° Northeast 384 442 13,900 -2,200 Descending Boston Center
05:33PM 42.6817 -72.3186 64° Northeast 384 442 12,100 -1,765 Descending Boston Center
05:34PM 42.7253 -72.1942 64° Northeast 353 406 10,400 -1,050 Descending Boston Center
05:35PM 42.7522 -72.1122 66° East 312 359 10,000 -744 Descending Boston Center
05:36PM 42.7956 -71.9986 63° Northeast 283 326 8,900 -1,350 Descending Boston Center
05:37PM 42.8347 -71.9192 56° Northeast 278 320 7,300 -1,613 Descending Boston Center
05:38PM 42.8947 -71.8364 45° Northeast 278 320 5,700 -1,537 Descending Boston Center
05:39PM 42.9467 -71.7736 41° Northeast 272 313 4,200 -1,041 Descending Boston Center
05:40PM 42.9939 -71.6850 54° Northeast 262 302 3,600 -800 Descending Boston Center
05:41PM 43.0142 -71.6025 71° East 251 289 2,600 -958 Descending Boston Center
05:42PM 43.0303 -71.5169 76° East 224 258 1,700 -915 Descending Boston Center